Tracking 25612 objects as of 19-May-2022
HD Live streaming from Space Station
objects crossing your sky now

UMBRA-2001

Track UMBRA-2001 now!
10-day predictions


NORAD ID: 48906
Int'l Code: 2021-059AD
Perigee: 532.2 km
Apogee: 547.8 km
Inclination: 97.5 °
Period: 95.3 minutes
Semi major axis: 6911 km
RCS: Unknown
Launch date: June 30, 2021
Source: United States (US)
Launch site: AIR FORCE EASTERN TEST RANGE (AFETR)
aabbcc
Your satellite tracking list
Your tracking list is empty




NASA's NSSDC Master Catalog

Two Line Element Set (TLE):
1 48906U 21059AD  22138.82299056  .00006531  00000-0  39326-3 0  9992
2 48906  97.5380 267.0265 0011312  89.3734 270.8792 15.11092793 49366
Source of the keplerian elements: AFSPC